Theta_e
309 308 308 308 308 308 308 309 309 309 309 308 309 309 309 309 308 299 292 298 305 312 317 310 306 303 299 294 292 291 283 282 284 285 288 291 290 293 293 294 294 296 297 301 313
307 308 307 307 307 308 308 308 308 308 308 308 308 308 308 308 298 292 301 314 314 314 306 304 302 300 293 292 290 287 283 285 288 290 289 292 291 293 291 291 292 295 300 310 316
307 307 306 307 307 307 308 308 307 307 307 307 307 307 307 304 290 289 311 309 310 308 304 306 307 302 291 291 288 287 285 290 288 290 291 290 291 293 290 288 292 293 296 309 312
306 306 306 307 307 307 307 307 307 307 307 307 307 306 306 297 277 294 308 307 306 301 302 303 303 298 294 290 290 284 288 289 292 291 290 289 291 291 290 294 295 294 300 308 310
305 305 305 305 306 307 306 306 306 307 307 307 306 306 298 289 288 298 304 302 298 297 295 296 295 296 292 291 290 287 290 289 290 291 291 290 289 290 290 293 293 294 299 306 310
305 306 305 304 305 306 306 307 306 306 306 306 306 305 292 282 295 298 297 297 296 295 293 293 291 293 290 293 291 291 290 291 293 291 289 288 289 288 292 293 292 293 296 300 307
305 304 304 304 305 305 306 306 306 306 305 305 305 297 289 286 295 296 296 294 296 295 288 291 292 290 291 289 294 292 287 290 291 290 288 289 286 287 292 292 292 292 292 296 303
305 305 304 304 305 305 305 305 305 305 304 303 302 290 283 294 295 297 293 291 293 293 291 291 295 291 288 290 289 286 286 281 288 291 291 289 283 291 294 290 291 293 293 292 297
304 304 303 304 304 305 305 305 304 302 301 299 287 285 281 296 292 291 290 287 289 289 290 292 290 284 286 283 278 282 277 279 282 289 289 288 285 290 293 291 291 293 293 293 293
305 303 304 303 304 304 305 303 300 296 293 292 290 281 283 282 287 289 290 289 286 286 285 284 283 279 281 280 272 274 277 279 279 284 287 285 285 289 291 291 291 293 295 296 296
304 304 303 303 304 304 298 290 284 281 286 282 282 282 283 287 289 287 289 287 286 283 277 280 274 271 274 277 281 281 279 278 282 286 284 284 285 288 290 291 290 292 293 294 295
304 304 303 303 304 303 291 285 285 289 280 285 285 284 286 287 281 284 289 282 281 276 278 275 271 277 278 277 276 279 276 279 283 285 284 283 283 287 288 290 291 292 293 293 292
303 303 303 303 303 293 288 287 291 289 279 280 282 282 283 285 281 281 285 283 279 276 276 272 274 278 277 276 274 273 273 275 279 283 284 282 280 283 286 287 289 291 293 293 292
303 303 303 303 293 288 286 290 291 290 270 273 278 281 284 283 277 285 286 282 279 275 277 275 278 276 275 273 275 271 276 276 277 276 275 282 273 280 284 286 288 290 290 291 291
302 302 302 302 291 286 289 291 291 281 254 274 277 286 283 279 280 280 287 282 276 276 277 272 275 275 274 274 277 273 278 276 278 277 277 278 275 278 282 282 285 288 290 292 294
302 302 302 294 288 289 290 288 282 262 254 271 277 276 276 278 278 280 280 284 282 277 278 276 281 276 276 279 280 279 276 275 273 274 268 275 276 276 277 282 284 287 289 291 293
301 301 297 292 284 289 287 279 263 256 270 268 272 275 274 274 276 277 274 272 273 269 268 275 276 280 281 276 278 277 272 260 262 266 266 276 275 277 279 283 285 287 289 291 292
301 300 293 291 289 288 281 268 255 259 263 274 274 274 271 276 274 273 270 268 277 275 271 269 266 275 281 278 274 274 272 262 259 265 268 275 270 276 284 286 285 287 288 289 287
299 289 285 286 290 286 275 258 259 266 273 273 272 266 268 274 274 272 265 271 276 278 271 270 268 279 280 281 280 275 271 275 270 262 270 271 276 280 281 282 285 286 284 285 286
287 283 283 288 288 282 269 266 264 275 276 272 265 265 264 269 270 271 268 275 276 280 279 271 267 277 280 282 281 277 279 270 271 264 265 268 270 271 271 275 278 275 279 280 281
289 278 283 287 284 274 263 262 271 278 278 268 264 267 270 271 271 270 273 277 279 278 278 273 270 272 276 276 275 275 274 272 275 272 262 263 271 271 270 268 268 273 278 278 278
288 275 283 285 270 263 267 268 279 277 278 274 273 272 271 272 270 270 273 275 280 278 271 270 274 268 271 277 282 280 277 277 266 264 268 267 271 274 273 273 278 279 278 278 279
281 281 284 282 264 264 268 270 276 274 273 265 268 273 272 271 268 270 274 279 279 277 272 272 267 263 266 272 278 274 277 279 277 276 271 264 265 274 275 271 277 278 280 279 279
282 272 273 275 275 269 265 268 265 274 271 274 274 275 266 268 272 269 272 277 279 278 282 278 267 266 265 268 273 270 271 274 277 269 269 265 268 270 270 271 272 273 276 279 275
280 270 270 267 269 274 272 270 271 264 272 275 268 267 268 268 268 264 271 274 276 279 276 273 265 267 271 273 273 271 270 271 270 270 269 269 268 269 271 270 270 272 272 274 276
275 274 272 271 274 274 272 267 272 272 272 272 267 272 272 270 271 269 272 273 273 274 275 273 266 270 269 274 272 270 271 271 270 270 270 271 269 274 272 266 271 270 270 271 272
287 286 281 274 271 268 270 272 273 275 277 277 276 274 272 274 277 278 278 278 277 274 273 273 266 265 265 272 272 267 269 270 269 270 270 266 270 273 270 270 270 270 270 270 270
Wind_Speed
20 21 22 21 22 23 23 23 24 24 25 26 25 26 27 27 25 12 10 10 7 9 6 4 4 4 4 4 4 3 4 16 18 16 20 3 6 4 2 5 4 8 6 1 6
19 21 22 21 22 22 22 23 24 24 24 26 26 27 28 28 18 13 9 17 3 9 3 5 4 4 4 5 5 7 9 20 6 15 9 11 7 5 4 6 5 4 2 4 14
21 22 22 22 23 24 24 25 25 26 26 26 26 27 26 18 12 6 7 19 17 13 3 5 7 5 6 4 6 6 23 15 3 8 6 5 5 4 6 5 8 11 5 9 13
23 22 23 23 23 25 25 25 25 26 27 27 27 27 26 4 11 3 19 23 13 9 6 5 6 6 7 14 6 10 14 15 15 5 5 7 3 7 8 9 1 6 5 9 15
23 24 23 24 25 26 27 27 27 28 28 28 27 26 12 8 14 15 25 10 5 7 3 4 9 9 17 8 7 16 17 5 5 12 15 4 12 7 12 11 4 5 6 10 12
23 23 24 25 26 27 28 28 29 30 30 29 28 24 4 23 5 5 8 6 6 3 3 1 4 10 14 15 16 6 6 19 18 16 8 10 15 7 20 9 6 6 9 9 12
23 24 24 24 26 27 28 29 30 31 31 29 26 12 8 27 8 13 11 5 3 2 3 4 5 3 7 9 15 16 16 15 17 7 6 9 24 29 15 6 13 12 9 9 13
23 22 24 24 26 28 28 29 31 30 29 23 20 2 10 6 6 4 3 3 7 9 5 8 4 6 6 8 11 6 5 13 12 19 11 9 28 15 17 12 16 17 16 12 14
21 24 24 25 27 28 29 31 29 28 16 19 7 3 11 9 2 3 8 11 9 5 7 11 7 9 7 13 12 14 21 22 15 9 7 23 28 13 8 14 18 18 18 16 15
20 23 25 26 27 29 31 25 25 9 10 11 2 3 5 6 18 13 8 5 5 6 5 3 5 10 9 13 21 21 22 20 22 7 15 19 22 15 7 12 18 19 20 20 19
24 25 25 25 26 29 15 9 7 3 12 8 24 20 26 11 8 4 3 5 2 0 4 4 4 9 14 16 20 20 18 24 16 14 10 18 22 18 12 11 12 11 13 14 15
24 24 25 25 27 25 4 5 4 7 17 22 18 15 19 4 7 10 4 4 4 8 4 3 10 16 15 14 19 22 17 22 19 8 17 19 26 17 12 16 16 17 17 15 9
25 25 25 26 27 5 5 4 4 4 6 14 5 5 6 5 7 20 7 4 8 12 14 12 14 14 13 15 17 21 24 19 19 7 22 9 22 16 6 6 8 11 14 11 14
24 25 26 28 7 3 6 4 5 2 3 8 5 4 1 8 17 3 13 10 6 15 14 14 21 20 23 14 16 19 19 22 20 18 22 15 18 13 18 20 14 16 11 12 9
23 25 26 22 8 4 5 6 5 5 6 6 6 3 18 7 12 18 2 4 18 20 8 17 10 6 14 27 14 16 16 17 16 14 13 11 11 8 12 14 18 22 20 19 19
24 25 27 5 1 4 6 5 5 9 8 9 6 22 23 27 8 9 7 5 6 9 12 24 12 9 24 21 16 11 10 2 1 5 18 16 17 12 9 15 13 15 19 20 19
23 24 19 1 3 4 4 5 7 6 8 10 21 20 22 14 23 6 8 7 7 7 5 4 13 10 17 18 11 13 5 2 6 12 18 18 12 9 3 13 20 22 22 21 15
22 26 6 2 4 2 4 8 6 6 8 8 17 24 8 18 10 7 7 5 4 8 7 4 8 4 4 8 7 14 13 8 9 7 11 18 15 21 19 15 11 18 17 10 2
17 4 3 4 2 3 6 5 8 5 7 12 16 4 7 14 10 10 4 4 4 7 7 10 8 9 13 15 12 4 13 11 2 2 1 3 5 7 4 10 20 21 4 3 5
3 4 3 5 2 5 5 5 4 4 8 5 4 1 10 14 13 17 6 2 7 8 9 6 14 10 3 6 5 5 5 5 4 5 6 0 4 2 9 10 11 9 8 7 6
2 5 2 3 4 5 2 7 7 5 5 2 6 7 9 11 10 8 7 15 3 6 15 9 5 11 9 4 2 5 6 5 4 3 4 3 2 3 6 5 7 6 6 6 7
1 5 2 1 5 1 2 6 7 11 6 6 4 8 8 12 8 7 9 10 11 11 17 5 6 9 21 12 0 6 5 6 7 5 1 4 0 3 5 5 8 9 9 7 6
5 4 2 3 2 4 6 5 4 5 5 3 5 4 5 10 10 8 8 6 18 15 5 5 2 9 11 4 2 3 5 3 3 2 6 6 5 1 6 6 12 12 10 11 10
2 5 5 4 2 3 4 6 6 5 6 5 9 9 4 7 11 13 24 11 10 23 25 5 3 4 8 15 14 10 13 7 4 3 5 2 1 14 14 13 14 13 13 10 6
1 4 5 5 5 6 2 3 11 6 4 2 5 4 6 12 22 8 10 20 10 15 3 2 5 1 11 17 4 12 14 17 9 4 4 3 4 7 10 9 10 8 10 11 13
3 1 1 4 3 5 3 4 10 6 4 12 6 14 13 15 19 31 24 15 11 2 1 1 5 7 5 7 11 10 17 15 11 10 7 5 3 9 8 4 11 12 12 13 13
2 1 2 5 2 1 4 5 12 16 9 8 15 18 18 19 18 22 22 23 18 18 12 6 1 3 5 1 5 6 9 11 9 11 4 8 6 11 6 4 8 13 12 12 13
Wind_Direction
8 4 3 359 358 357 353 350 349 346 344 341 338 337 334 329 329 313 278 238 260 282 315 316 303 171 139 222 189 127 205 233 223 206 223 135 190 207 193 194 221 193 187 287 137
0 358 359 357 354 351 348 347 344 341 341 338 337 335 334 331 322 282 242 6 32 342 291 296 276 239 185 205 206 174 222 238 208 219 217 230 187 201 171 197 230 231 148 95 155
359 356 355 351 350 347 345 344 342 341 339 336 335 332 331 338 315 258 44 13 4 5 312 281 235 228 223 174 199 214 234 232 245 226 221 246 220 216 175 207 217 207 157 148 175
353 352 351 347 347 344 342 340 339 337 336 334 331 328 325 22 294 287 319 342 358 0 359 283 243 235 236 226 189 255 244 239 250 264 252 244 264 245 197 222 171 207 144 160 183
351 351 345 347 343 341 340 338 336 334 330 328 325 323 337 280 251 279 293 321 353 8 16 341 290 271 242 238 219 241 249 225 228 241 250 265 245 239 236 233 194 124 157 183 190
349 351 348 343 337 340 336 334 331 328 324 321 318 313 275 275 245 267 280 337 334 3 357 347 272 303 298 258 239 248 255 251 252 259 249 237 256 199 244 223 235 201 215 203 194
346 349 342 336 338 335 333 330 325 322 318 315 311 309 257 256 286 287 298 278 232 106 260 235 234 240 321 259 260 251 263 265 249 221 246 212 257 241 248 203 232 236 235 224 219
344 342 337 339 337 332 330 326 322 317 314 314 308 348 254 262 277 350 45 328 329 313 279 260 231 246 228 297 290 268 244 244 236 225 220 181 260 255 226 189 227 240 252 239 226
343 343 336 335 334 331 328 326 319 311 332 322 322 183 265 299 28 255 311 304 296 222 212 245 231 206 238 243 257 241 248 240 258 217 208 209 255 242 190 212 226 230 228 234 236
341 338 338 335 334 331 329 331 311 341 6 295 222 301 274 318 315 299 279 261 263 297 288 209 216 217 219 219 232 234 228 243 242 209 210 227 246 231 218 205 219 225 230 234 233
341 338 337 334 331 331 347 334 5 352 355 278 274 273 275 279 279 257 292 313 229 304 239 229 188 238 264 244 261 270 249 256 248 227 246 237 244 238 226 242 236 234 234 237 236
340 333 335 333 331 333 47 354 288 304 308 286 272 267 260 217 295 280 214 192 190 230 216 263 240 252 242 249 245 250 277 255 254 231 218 236 248 249 214 235 232 232 239 238 241
338 336 334 331 328 33 313 273 326 333 290 299 257 263 260 129 245 282 159 233 222 246 253 251 261 260 251 250 243 243 244 255 273 245 232 227 248 236 232 234 237 226 234 232 227
335 336 334 332 349 305 300 311 310 195 322 280 324 306 37 319 294 355 249 250 227 250 256 263 254 245 254 240 237 260 245 243 256 275 242 179 256 227 224 229 234 246 233 243 226
334 334 332 338 302 330 291 331 326 58 5 279 303 274 330 276 294 311 156 232 251 256 255 248 255 258 245 232 211 244 252 249 244 247 286 199 237 231 205 221 226 241 245 244 243
333 331 330 346 7 266 323 341 43 44 262 310 339 326 324 317 296 272 287 238 245 260 238 254 260 231 242 255 225 251 252 259 314 253 259 256 224 217 175 204 218 233 238 235 233
330 327 326 32 269 318 344 33 27 117 333 303 327 325 310 295 311 338 307 290 270 285 237 263 252 241 234 257 237 216 149 263 215 224 243 239 241 250 232 210 220 231 234 240 232
337 320 345 273 333 30 47 43 81 234 250 293 324 304 286 319 296 298 300 293 277 250 286 263 323 196 161 217 236 201 178 166 208 204 235 226 237 246 233 228 226 230 235 250 335
336 307 347 338 1 45 61 35 214 228 300 327 322 333 295 321 318 326 173 270 280 340 18 330 273 272 251 260 223 179 192 204 8 311 216 187 286 320 163 223 233 238 217 32 29
333 332 303 311 41 63 76 263 247 250 316 348 301 32 308 323 332 345 330 250 308 348 19 269 291 300 353 258 185 175 160 164 177 204 195 7 292 253 352 320 9 22 21 351 340
48 341 283 355 59 49 157 235 280 271 321 164 257 284 274 311 322 308 285 303 265 335 342 286 235 287 328 304 279 168 190 197 142 209 138 107 294 294 288 306 317 332 7 344 344
358 320 330 54 41 346 244 213 291 283 308 263 271 246 264 316 295 286 277 299 341 339 330 250 286 310 296 304 25 241 258 199 146 229 87 132 186 0 310 314 330 2 10 356 354
323 268 343 73 73 303 291 265 257 305 269 301 265 250 269 296 311 265 284 304 317 334 322 311 332 313 334 338 259 24 316 280 93 57 172 135 245 48 21 3 10 6 6 6 0
340 323 315 31 129 180 308 282 296 267 257 229 263 290 322 286 261 278 287 302 331 308 303 357 289 199 285 285 311 333 328 287 115 110 153 240 18 349 356 358 352 0 354 356 356
40 259 189 296 307 289 268 247 301 317 237 271 299 226 281 301 310 249 267 298 295 286 321 79 270 190 293 295 170 13 357 34 70 14 70 49 106 339 348 344 343 348 351 356 358
173 174 294 261 281 290 302 270 296 299 256 299 226 274 281 275 274 290 292 288 288 300 352 328 273 325 271 210 80 42 19 38 42 22 41 35 44 1 322 343 11 6 352 354 351
203 219 206 278 286 77 244 236 298 306 289 234 289 302 296 282 277 284 277 277 272 275 284 256 242 354 273 209 272 32 5 26 49 27 354 35 323 324 329 342 8 2 355 345 336